{"data":{"norad_id":52090,"intl_designator":"2022-029C","name":"STARLINK-3712","alt_names":[],"object_type":"PAYLOAD","status":"ACTIVE","operator":null,"country":"US","launch_date":"2022-03-19","launch_site_code":"AFETR","launch_vehicle":null,"mission":null,"orbit_class":"UNKNOWN","rcs_meters":null,"size_class":null,"mass_kg":null,"dimensions":null,"purposes":["comms"],"wikipedia_slug":null,"has_3d_model":false,"image_url":null,"decayed_at":null,"tle_current":{"epoch":"2026-05-25T04:30:37.060416Z","epoch_age_seconds":55480,"freshness":"FRESH","line1":"1 52090U 22029C   26145.18792894  .00000278  00000+0  35530-4 0  9993","line2":"2 52090  53.2119 105.7045 0000810  71.7930 288.3150 15.08853553232206","mean_motion":15.08853553,"eccentricity":8.1e-5,"inclination_deg":53.2119,"raan_deg":105.7045,"arg_perigee_deg":71.793,"mean_anomaly_deg":288.315,"bstar":3.553e-5,"rev_number":23220,"period_min":95.436697427454,"perigee_km":539.14161821913,"apogee_km":540.26230813117,"semimajor_km":6917.8389631751,"source":"CELESTRAK","updated_at":"2026-05-25T13:38:17.000392Z"}}}